Theta_e
337 340 338 338 338 337 336 336 336 336 335 335 334 333 333 332 332 332 331 330 330 331 331 327 325 326 321 320 320 321 323 329 331 330 330 330 330 331 332 333 335 335 333 331 330 328 327 325 322 321 321 321 321 320 320 320 320 320 320 322 323 323 324 325 325 324 324 325 325 325 325 325 324 322 323 326 328 330 332 334 334 335 336 335 332
334 338 338 338 338 337 337 336 336 336 336 336 336 335 334 333 333 332 331 330 331 331 332 328 324 323 321 320 321 321 322 325 329 331 330 329 330 332 332 333 334 335 333 332 330 328 327 327 325 322 320 320 320 320 321 320 319 320 320 321 321 323 324 324 324 325 327 329 329 328 328 327 327 326 324 322 321 324 327 331 334 335 336 337 334
333 336 338 337 338 337 337 337 337 337 337 337 338 337 336 335 334 332 331 330 331 331 332 331 326 323 321 321 322 322 323 322 324 329 329 328 328 330 332 332 334 335 334 331 328 327 326 327 327 326 323 320 318 318 319 321 321 320 320 320 321 322 322 323 324 327 330 331 331 330 331 330 330 332 330 326 323 321 322 324 327 332 335 337 336
332 334 338 337 337 337 337 338 338 338 338 338 338 338 337 336 334 331 330 331 331 331 332 333 327 322 322 321 322 323 323 322 321 324 327 327 327 329 331 332 334 334 332 329 327 326 326 325 326 327 326 324 320 317 316 317 320 321 320 319 319 321 321 322 327 330 330 332 333 331 332 331 332 334 333 331 329 326 324 323 321 324 328 332 335
333 333 337 337 338 338 338 339 339 338 338 338 338 338 338 336 333 331 331 332 332 331 332 333 328 322 322 322 323 323 322 323 320 321 327 328 326 329 331 332 333 332 330 328 325 323 323 322 322 322 323 322 319 316 313 313 314 318 320 320 318 318 320 323 328 332 331 333 333 331 332 332 332 334 333 332 331 329 327 326 324 323 323 324 328
335 333 336 337 337 339 339 339 339 338 338 338 338 338 337 336 333 331 331 332 332 331 332 334 331 324 322 323 323 323 322 323 321 320 326 327 327 329 331 331 331 331 329 325 320 317 316 315 314 314 315 315 314 312 311 311 310 312 315 318 318 316 317 321 328 332 331 332 332 330 331 332 332 333 332 330 330 331 329 326 323 323 323 322 321
335 333 335 337 337 338 338 338 339 338 338 338 338 337 337 335 333 331 330 331 331 331 333 335 332 325 322 323 322 323 323 323 322 320 323 326 327 328 329 331 331 330 328 321 314 312 311 309 309 309 310 310 310 310 310 310 309 310 310 313 315 314 314 318 325 330 330 330 329 329 330 332 331 332 332 328 328 330 329 323 316 316 321 324 323
335 333 334 336 336 337 337 337 338 338 338 338 337 337 336 335 333 331 330 331 330 330 332 333 330 324 322 323 323 324 323 323 323 321 322 326 328 327 326 329 329 328 325 317 312 312 311 308 308 308 309 309 309 310 309 308 308 309 310 310 311 311 311 315 321 326 328 327 326 325 328 331 329 331 330 329 328 326 323 317 312 315 320 323 323
332 332 333 336 336 336 336 334 335 337 338 338 337 337 337 335 334 332 331 331 330 330 330 330 327 324 322 323 324 324 323 323 323 322 324 327 328 326 325 326 326 326 322 315 314 315 313 310 308 308 309 309 309 310 308 307 307 307 307 308 309 309 310 313 317 322 324 325 325 322 325 328 328 329 329 330 330 321 316 312 311 317 322 323 322
329 329 335 337 337 337 336 335 335 335 336 337 337 336 336 335 335 333 332 332 330 328 328 327 325 323 324 324 324 325 324 323 323 323 325 328 328 325 324 324 323 323 320 317 317 316 315 312 308 307 308 309 309 308 306 305 305 305 304 305 306 307 309 312 316 321 322 322 324 321 322 325 327 329 327 330 330 321 315 309 311 321 325 326 326
332 330 334 336 336 336 336 336 335 334 334 336 337 336 336 336 335 334 333 333 331 327 327 326 324 323 323 323 325 327 325 322 324 325 326 329 329 326 325 324 322 323 323 322 319 316 318 314 308 307 307 308 308 306 305 304 304 304 304 304 304 305 307 310 314 320 322 322 321 318 320 324 327 328 328 330 330 325 318 309 312 324 328 328 329
338 335 333 334 335 335 335 335 336 334 334 335 336 336 336 336 335 335 334 334 332 328 327 326 324 322 322 324 328 329 327 324 325 327 328 329 330 328 327 326 326 328 327 325 321 318 319 316 311 307 306 307 306 305 304 304 304 305 305 305 304 304 305 306 311 316 321 322 320 317 318 322 326 327 329 331 330 326 318 308 310 322 329 329 327
337 338 335 335 334 333 333 334 335 334 333 334 335 334 335 336 335 334 334 334 333 330 327 326 324 323 323 326 328 329 329 328 328 328 329 330 330 330 330 329 329 330 328 326 323 322 321 318 313 308 306 306 305 304 304 304 304 306 306 307 306 306 305 306 307 310 315 318 319 318 316 319 323 326 327 327 326 322 314 308 306 313 323 326 321
328 332 333 332 331 330 330 332 334 333 332 333 334 334 334 335 334 335 334 333 333 331 329 326 324 324 324 326 328 328 329 330 330 329 329 330 331 331 331 331 330 329 328 327 326 325 323 320 316 310 306 305 304 303 304 304 305 306 307 308 307 307 307 307 307 307 309 311 315 316 317 318 319 323 322 320 318 313 310 307 306 307 312 315 313
319 321 322 323 324 325 327 330 332 331 331 331 333 334 334 334 334 335 335 334 333 331 331 328 325 324 324 326 328 329 330 330 330 330 328 329 330 331 331 331 330 330 329 327 326 326 324 322 318 313 308 305 305 304 303 304 305 306 307 308 307 307 307 307 308 308 307 308 312 313 316 315 314 322 322 320 315 308 308 307 306 306 306 307 307
318 317 317 318 318 320 325 329 331 330 329 330 331 333 334 334 334 334 335 334 334 333 332 329 326 325 325 327 328 329 330 329 329 330 329 328 329 330 331 331 330 330 329 327 327 327 324 322 321 317 311 306 305 304 303 303 304 306 307 307 307 307 306 307 307 307 307 307 310 311 315 314 313 321 323 321 316 308 308 306 306 307 306 307 306
318 317 317 317 317 318 321 326 329 329 329 330 330 332 332 332 333 334 334 334 334 333 333 330 328 326 325 326 327 327 328 328 327 327 328 328 327 328 328 329 330 330 329 327 327 326 322 320 320 319 314 308 305 304 304 303 304 306 306 307 307 307 307 307 307 306 307 307 309 309 313 314 312 317 318 316 313 308 307 306 307 307 307 307 307
319 319 318 317 317 317 319 322 325 326 327 329 329 330 330 331 332 333 334 334 334 333 333 331 329 328 326 326 325 325 325 326 326 325 326 326 325 326 326 326 328 329 328 327 326 324 320 318 319 319 316 311 308 304 304 303 303 305 306 307 306 306 306 306 307 307 307 306 307 308 309 309 309 311 310 310 310 308 307 306 307 306 307 307 307
317 318 317 317 317 317 318 320 321 322 324 325 327 328 328 329 331 333 334 333 333 333 333 332 330 328 327 326 325 325 324 324 324 324 324 324 323 323 323 323 325 326 326 325 324 322 319 318 318 318 317 314 311 306 304 303 303 304 305 306 306 306 306 306 306 307 307 307 307 307 306 306 306 307 306 308 308 307 307 307 307 307 307 307 307
316 316 316 316 316 316 316 317 319 320 321 323 324 325 326 328 329 332 333 333 333 333 332 332 331 329 327 326 325 325 324 324 323 325 326 326 326 325 323 321 322 323 323 323 322 321 320 318 318 318 318 316 314 311 307 305 303 303 303 305 305 305 305 305 306 307 307 307 307 307 306 306 306 306 306 307 308 307 307 307 307 307 307 307 308
315 315 315 315 315 315 315 315 316 317 319 321 322 323 324 326 327 329 331 332 332 332 332 332 332 330 329 327 326 325 325 324 323 325 328 329 329 328 325 323 321 322 322 322 322 321 320 320 320 319 319 319 318 316 313 311 308 305 303 303 304 305 305 305 305 306 307 307 307 307 307 306 306 306 306 306 307 307 307 307 307 307 307 307 307
315 315 315 315 315 315 315 315 315 315 316 318 320 322 324 326 327 327 329 330 331 331 331 331 332 332 330 329 327 326 326 325 325 327 329 329 328 327 326 325 323 322 322 323 323 321 322 323 321 319 319 320 321 322 320 318 315 311 308 305 303 303 303 304 305 305 305 306 307 307 306 306 306 306 306 306 306 307 307 307 308 307 307 307 308
314 314 315 315 315 315 315 315 315 314 315 317 320 323 325 327 329 329 329 330 330 330 330 331 332 332 331 330 329 328 328 327 328 329 329 328 327 326 326 326 323 322 324 325 323 323 324 325 323 320 319 320 323 325 324 323 321 318 316 312 308 305 303 303 303 304 304 304 305 306 306 305 305 305 306 306 306 306 306 307 307 308 308 308 308
314 314 314 314 315 315 314 315 315 315 316 318 320 325 327 329 330 331 331 330 330 330 330 330 330 331 331 330 330 330 330 330 330 330 329 329 327 327 327 325 323 324 326 326 324 324 324 325 325 324 322 323 325 326 325 324 323 322 321 318 314 311 308 304 302 303 303 303 304 304 305 305 305 305 305 305 305 305 305 305 306 308 310 312 312
313 314 314 314 315 314 315 314 315 315 316 318 320 323 325 326 329 332 332 332 331 330 329 329 330 330 331 331 331 331 331 331 331 330 330 329 329 328 328 326 326 327 328 327 325 325 325 326 326 324 324 325 326 326 325 324 324 323 322 321 318 315 313 310 306 303 302 302 303 303 303 304 304 304 304 304 304 304 305 304 305 306 308 312 316
313 313 313 313 314 314 315 314 314 315 316 318 320 324 325 324 328 331 332 332 332 331 331 330 330 330 331 332 332 332 332 332 332 331 331 330 330 330 329 329 329 330 329 328 327 327 327 327 326 325 324 325 326 326 325 324 323 323 322 321 320 318 316 314 312 307 303 302 302 302 303 303 303 304 304 304 304 304 304 304 304 304 304 309 318
313 313 313 313 313 313 313 313 314 314 315 318 320 325 327 326 328 330 330 332 332 332 333 332 332 331 331 331 332 332 332 331 331 331 331 330 330 330 330 330 330 330 329 328 328 328 328 328 327 325 325 326 325 324 323 323 323 323 322 321 321 319 317 316 315 313 309 305 302 301 302 302 302 303 303 303 304 304 304 304 304 304 303 306 315
312 312 312 312 312 313 313 313 313 312 314 319 322 325 327 327 328 329 330 332 332 332 333 332 332 331 331 332 332 332 331 331 331 331 331 330 329 330 330 329 329 329 329 328 328 328 328 329 328 325 326 325 324 323 322 322 323 323 323 322 321 319 318 317 316 315 313 310 307 305 303 302 301 301 302 302 303 303 303 303 303 303 303 303 308
312 312 312 312 312 312 312 312 313 312 313 319 324 324 326 327 329 329 330 331 332 332 331 331 331 331 332 332 332 331 331 331 330 330 330 330 329 329 330 330 329 329 329 328 328 329 328 328 328 326 326 324 323 323 321 321 323 322 322 322 320 319 318 317 317 316 316 315 314 312 310 307 305 303 301 301 301 301 302 303 303 302 303 303 302
312 312 312 312 312 312 312 312 313 313 313 319 324 325 327 328 328 331 332 331 331 330 330 330 330 330 331 331 331 332 332 331 330 330 330 330 330 330 330 329 329 329 329 329 329 328 327 327 327 326 326 325 324 322 321 321 322 322 322 321 319 319 318 318 317 317 317 317 316 316 315 314 313 311 308 306 303 301 300 300 301 302 302 302 301
312 312 312 312 312 312 312 312 313 314 314 319 323 325 327 329 328 330 332 331 330 330 329 330 330 329 328 329 330 331 331 330 330 331 330 329 329 330 330 330 329 330 329 329 329 328 327 326 326 326 325 325 323 322 322 322 322 322 322 320 319 319 319 318 318 318 318 317 317 317 316 316 316 316 315 313 311 308 305 302 300 300 300 301 301
313 312 312 312 311 311 312 313 313 314 316 320 322 323 326 327 328 328 329 330 330 330 329 328 328 327 326 326 328 328 328 328 328 329 327 327 328 330 331 330 330 330 329 329 328 328 327 326 325 324 324 323 323 322 322 322 322 322 321 319 319 320 319 318 318 318 318 317 317 316 316 316 316 316 315 315 314 313 312 309 305 301 300 299 300
312 312 312 311 311 312 312 313 314 314 318 322 322 323 326 327 327 327 327 328 329 329 328 327 327 326 325 324 324 324 325 326 326 326 326 328 329 330 330 330 329 329 328 327 326 326 325 324 323 323 322 322 322 322 322 322 322 321 319 318 319 319 319 318 318 318 317 316 315 315 315 314 314 313 313 313 313 313 313 312 310 307 303 301 299
312 312 311 311 311 312 313 313 314 315 319 324 325 324 326 327 326 325 325 327 328 327 326 325 325 325 324 322 321 322 323 323 325 327 327 328 328 328 328 328 327 326 326 324 323 323 322 322 321 321 321 320 320 321 322 322 320 319 319 318 318 318 319 318 317 317 315 314 314 313 312 312 311 310 310 310 310 310 310 310 310 309 307 304 301
312 311 311 311 311 311 313 313 316 318 319 323 324 323 325 328 327 324 324 325 325 323 322 323 324 324 322 321 321 322 322 322 324 326 327 326 325 326 326 325 324 324 323 322 322 322 321 321 320 319 320 320 321 321 321 319 318 319 319 318 317 317 316 316 315 315 314 312 311 310 310 309 309 308 308 308 308 308 308 308 308 308 307 306 304
312 311 310 311 311 312 314 314 317 319 321 323 321 321 325 327 326 324 324 323 322 321 322 322 322 322 321 320 321 322 322 322 324 324 324 324 324 323 323 323 322 322 322 321 321 321 320 321 320 320 320 321 320 320 319 318 318 319 318 317 316 315 314 314 313 313 311 310 309 308 308 307 307 306 306 306 306 305 305 305 306 306 306 307 306
311 311 310 311 311 312 314 315 317 319 321 324 324 323 325 325 324 323 322 321 320 321 321 322 321 320 319 319 321 323 323 323 324 324 323 323 323 323 322 322 322 322 323 322 322 321 321 320 320 319 319 319 318 318 318 318 318 318 317 316 314 313 313 311 311 309 307 306 306 305 304 303 303 302 301 301 301 300 300 299 300 301 301 302 303
311 311 310 311 311 313 315 316 319 320 319 321 324 325 326 325 324 322 320 319 319 320 320 321 319 318 318 319 320 322 323 323 323 323 323 323 323 323 323 323 323 323 322 322 322 321 321 320 319 318 318 317 317 317 317 317 317 316 315 313 312 311 309 308 306 305 304 304 302 300 298 297 297 297 296 296 296 295 295 295 295 296 296 297 297
311 310 311 310 311 314 315 315 318 321 320 320 321 322 323 323 322 320 319 319 319 319 320 319 317 316 318 319 320 321 321 322 323 323 323 323 323 322 322 322 322 322 321 320 320 320 319 318 317 316 315 313 311 311 311 313 315 314 313 311 310 308 306 304 304 303 302 300 297 296 294 294 293 293 293 293 293 293 293 293 293 293 293 293 294
310 310 310 311 313 315 316 316 317 319 320 319 318 319 320 320 319 319 318 318 318 318 318 318 316 317 319 318 319 320 320 321 322 322 322 322 321 321 321 320 319 318 316 315 315 315 314 313 312 310 308 306 305 304 305 309 312 312 310 309 308 306 304 303 303 302 301 298 295 294 294 293 293 292 292 292 292 292 293 293 293 292 292 292 292
310 310 310 311 314 314 315 317 318 318 318 317 317 318 317 317 317 318 317 316 316 316 317 316 316 317 318 317 318 320 320 321 321 321 320 318 317 316 315 314 312 310 308 308 308 307 306 306 305 304 303 302 302 302 303 307 309 308 308 308 306 305 304 302 301 301 301 300 298 295 293 293 293 292 292 292 292 292 292 292 292 292 292 292 292
310 311 311 311 314 314 313 316 316 316 317 316 316 317 316 316 316 316 315 314 314 314 314 315 314 314 317 318 318 317 317 316 315 314 312 310 309 308 307 306 305 305 304 304 303 303 302 301 301 300 300 299 299 299 301 305 307 307 307 307 305 303 301 299 299 299 299 299 299 295 293 292 292 292 292 292 292 292 292 291 291 291 291 291 291
310 311 312 311 312 313 313 313 314 314 315 316 316 316 316 316 315 314 313 312 312 312 312 313 313 314 316 316 313 310 309 308 308 307 306 305 305 304 304 303 303 302 302 302 301 300 299 299 298 298 298 297 297 297 299 303 306 307 307 306 304 301 298 295 296 297 295 295 296 293 292 292 291 291 291 291 291 291 291 291 291 291 291 291 291
309 310 311 311 310 311 311 311 312 314 314 314 315 314 313 313 312 312 312 311 310 311 312 313 313 313 311 309 306 305 305 304 304 303 303 303 302 302 301 301 300 299 299 299 299 298 298 297 297 297 297 296 296 296 296 299 303 305 306 306 303 302 300 295 294 295 293 293 293 291 291 291 290 291 291 291 291 291 291 291 291 290 290 290 290
308 308 309 310 309 309 310 310 311 313 313 312 312 311 310 311 310 310 311 310 310 311 311 311 309 308 305 304 304 303 303 302 302 301 301 300 300 299 299 299 298 298 297 297 297 297 296 296 296 296 296 296 295 295 295 295 296 297 299 300 298 296 296 293 292 294 293 291 291 290 290 290 290 290 290 290 290 290 290 290 290 290 290 290 290
308 308 309 309 309 309 310 309 309 311 311 311 310 310 310 310 309 309 309 308 308 307 307 306 305 304 303 302 301 301 300 300 300 299 299 299 298 298 297 297 297 297 297 297 297 296 296 296 295 295 295 294 294 294 294 293 293 293 294 294 293 292 292 291 291 292 292 291 290 290 290 290 290 290 290 290 290 290 290 289 290 290 289 289 289
308 309 309 309 309 309 309 309 309 310 312 312 311 311 311 310 309 308 307 306 305 305 304 304 303 302 302 301 300 299 299 299 298 298 298 298 298 297 297 297 297 297 296 296 296 295 295 295 294 294 294 293 293 293 293 292 292 292 292 291 291 291 291 291 290 290 290 291 290 290 290 290 289 289 289 289 289 289 289 289 289 289 289 288 288
309 309 309 309 309 309 309 309 310 312 313 313 312 311 311 309 308 307 305 304 304 304 303 302 301 301 300 299 299 298 298 298 298 298 297 297 297 297 297 296 296 296 295 295 295 294 294 294 293 293 293 292 292 292 292 291 291 291 291 290 290 290 290 290 289 289 289 289 290 289 289 289 289 289 289 289 289 289 288 289 289 288 288 288 287
309 309 309 310 310 309 309 310 312 313 313 312 311 311 309 307 306 305 304 304 303 302 301 301 300 299 299 298 298 298 298 297 297 297 297 296 296 296 296 296 296 295 295 295 294 294 293 293 293 292 292 292 292 291 291 291 291 290 290 290 290 289 289 289 289 288 288 288 288 288 288 288 288 288 288 288 288 288 288 288 288 287 287 287 287
309 309 311 311 310 309 310 311 312 313 312 311 310 309 307 306 305 304 304 303 302 301 301 300 299 299 298 298 298 298 297 297 297 296 296 296 296 296 296 295 295 295 295 294 294 293 293 293 292 292 291 291 291 291 291 291 290 290 290 290 290 289 289 289 288 288 288 287 287 287 287 287 287 287 287 288 288 288 288 287 287 287 286 286 286
309 310 312 312 311 311 311 311 312 312 311 310 308 306 305 304 304 303 303 302 302 301 300 300 299 298 298 298 298 297 297 297 296 296 296 296 296 295 295 295 295 295 294 294 293 293 293 292 292 291 291 291 291 291 291 291 290 290 290 290 289 289 289 288 288 287 287 287 287 287 287 287 287 287 287 287 287 287 287 287 286 286 286 286 286
Wind_Speed
6 8 9 9 10 9 10 9 8 8 8 8 8 8 8 8 8 8 9 10 11 12 12 13 14 14 15 15 16 16 17 16 15 14 14 13 14 15 15 14 13 14 14 14 15 15 15 14 14 13 12 12 11 11 11 11 11 11 10 9 9 10 10 11 11 12 12 13 12 13 13 12 12 11 10 10 9 9 9 10 10 10 12 10 8
4 9 10 9 9 9 10 9 8 8 7 7 7 8 8 7 8 8 9 10 10 11 11 11 12 14 14 15 15 15 16 16 15 14 13 12 12 12 12 11 11 12 12 13 14 14 13 12 11 11 11 11 10 10 10 10 10 11 10 10 10 11 11 11 10 10 10 10 10 11 12 12 11 10 9 8 8 8 8 9 9 10 12 11 8
3 9 11 9 9 8 9 9 8 8 7 7 7 7 7 7 7 8 8 9 9 10 10 10 11 13 14 15 15 15 15 15 14 13 13 11 11 10 10 10 9 10 11 12 14 14 13 12 10 9 9 9 9 9 9 9 9 10 10 10 10 11 11 10 10 9 9 9 10 11 12 11 11 11 10 8 8 7 7 7 7 9 11 11 10
3 8 12 10 9 8 8 8 8 7 6 6 6 6 6 7 7 8 8 8 9 9 9 9 10 13 14 14 13 13 13 13 13 13 12 11 10 9 9 9 9 9 10 13 15 15 14 13 11 9 8 8 9 8 8 7 8 8 9 10 10 10 10 10 9 8 8 9 10 11 11 11 11 12 10 9 8 8 7 7 6 6 6 7 9
5 6 12 11 9 8 7 7 7 6 6 5 5 5 6 7 8 8 8 8 9 9 8 9 10 12 13 12 12 12 12 12 13 13 12 10 9 8 9 8 8 9 10 13 14 14 14 13 12 10 9 8 8 8 7 7 6 7 7 8 9 9 9 9 8 7 8 9 9 10 10 10 10 10 10 9 9 9 8 7 6 5 5 4 5
5 4 11 12 9 8 7 7 6 6 6 6 5 5 6 6 7 7 8 8 8 9 9 9 9 11 12 11 11 11 11 12 13 12 11 10 9 8 8 8 7 7 10 12 14 14 14 13 12 11 10 9 9 8 7 7 6 6 6 6 7 7 8 7 6 6 6 7 8 8 8 8 8 9 9 8 9 9 9 8 7 5 5 4 4
5 5 11 11 9 8 7 7 7 6 6 6 5 5 5 6 6 7 7 7 7 8 9 9 8 10 10 10 10 11 11 12 12 12 11 10 8 7 7 7 6 7 10 13 14 14 15 14 13 12 10 9 9 8 7 7 6 6 5 5 5 6 7 6 5 5 4 5 6 6 7 7 7 8 9 8 7 7 8 9 9 8 7 5 4
5 5 9 11 9 8 6 6 6 7 6 6 6 5 5 5 5 6 6 6 7 8 8 7 7 8 9 8 9 10 11 11 12 12 12 10 8 6 6 6 6 8 12 14 15 15 16 16 15 13 11 11 10 9 8 7 7 6 6 6 5 5 6 5 5 3 2 2 3 4 4 6 7 8 9 8 7 6 8 10 11 10 9 7 6
5 6 9 11 9 8 7 5 5 6 6 5 5 5 5 4 5 5 6 5 6 6 6 7 6 7 8 8 8 9 11 11 12 12 12 10 8 7 6 5 7 10 13 14 15 16 18 18 17 15 13 13 11 10 9 8 8 7 7 6 6 6 6 6 4 3 1 0 1 2 3 5 6 7 7 7 7 6 8 11 11 10 10 10 9
6 8 8 8 7 7 7 6 4 5 6 5 4 4 4 4 5 5 5 5 5 5 5 6 6 7 7 7 8 9 11 11 11 12 11 10 8 8 7 8 9 11 13 14 15 16 19 19 18 17 15 14 12 10 9 8 8 8 7 6 6 6 6 6 5 3 1 2 1 1 2 3 5 5 4 5 5 5 8 10 10 10 10 10 10
7 7 7 8 7 6 6 7 6 4 5 5 4 4 4 4 4 5 5 5 6 5 5 5 6 7 7 7 8 9 10 10 10 11 10 9 8 8 9 10 11 12 13 15 15 16 19 20 20 19 16 14 12 11 9 8 8 8 8 6 6 5 5 5 5 5 3 3 2 2 1 2 3 4 3 2 4 5 9 8 7 9 8 8 7
8 6 6 7 6 6 6 8 8 5 5 6 5 4 4 3 3 4 4 4 5 5 5 5 6 6 7 8 8 8 8 9 9 9 9 8 7 8 9 10 11 12 13 14 15 16 18 20 20 20 18 15 13 11 9 8 8 8 8 7 6 6 5 4 4 6 5 4 2 2 2 2 2 2 1 2 4 7 9 8 5 5 5 4 5
11 9 8 7 7 7 7 9 10 7 6 6 5 4 4 3 3 3 3 3 3 4 5 5 5 5 6 7 7 6 6 7 8 8 8 7 6 6 8 9 10 11 11 13 14 15 17 19 20 19 18 16 14 12 10 8 7 7 7 7 6 5 5 3 4 5 6 5 4 2 2 1 2 1 2 4 6 8 8 7 6 4 2 3 6
11 10 10 10 9 9 8 10 12 9 7 7 6 5 4 3 3 3 3 2 3 3 4 4 4 4 5 6 5 4 5 6 7 7 7 6 6 6 7 8 9 10 10 13 15 15 17 18 19 18 17 16 14 12 10 9 7 6 6 6 5 5 5 2 1 3 3 4 4 3 1 1 1 2 5 6 7 7 6 5 6 6 5 7 9
7 7 8 9 10 11 11 12 13 11 10 8 7 6 5 5 4 3 3 3 2 2 2 3 3 4 4 4 4 3 3 4 5 6 6 6 6 6 7 8 9 10 10 13 15 15 17 18 18 17 16 15 13 11 10 8 7 6 6 5 6 6 5 4 5 3 1 1 2 2 1 1 2 4 5 5 5 5 5 5 5 6 6 8 9
6 5 5 5 7 10 12 13 13 12 11 10 9 8 7 6 5 5 4 4 3 2 1 1 2 2 3 3 2 2 2 3 4 4 5 6 6 6 7 8 9 10 12 14 14 16 17 18 17 17 16 14 12 10 9 8 7 6 6 5 5 5 6 6 7 7 6 5 4 3 4 2 2 3 4 4 5 4 5 5 6 6 7 8 8
7 6 5 5 5 7 12 13 14 13 13 12 10 10 9 8 7 7 6 5 4 3 3 2 1 2 2 2 2 1 2 2 3 3 3 4 5 7 7 9 9 10 12 14 14 16 18 17 17 16 15 14 12 10 8 7 6 6 5 5 5 6 6 7 8 8 7 7 7 7 5 3 1 3 6 7 7 5 5 6 6 7 7 8 8
9 8 7 6 5 5 9 13 14 14 14 14 13 12 11 10 9 9 8 7 6 5 4 3 3 2 1 1 1 1 2 2 3 3 3 3 5 5 6 8 9 10 12 13 14 16 17 16 16 16 14 14 13 11 9 7 7 6 5 5 5 6 7 7 8 7 6 6 7 7 6 4 5 7 10 10 8 7 6 7 7 7 8 8 9
10 10 9 7 7 5 7 11 13 14 14 14 14 14 13 12 12 11 10 9 8 6 5 4 3 3 2 1 1 2 3 3 3 3 4 5 6 6 6 7 8 10 11 13 14 15 15 15 15 15 15 14 14 13 11 9 7 7 6 6 6 7 7 7 7 7 6 6 6 7 6 6 7 8 11 11 9 8 7 7 7 7 8 8 9
11 11 9 8 8 7 6 8 10 11 12 14 14 14 14 14 14 13 11 10 10 8 7 5 4 3 2 2 2 3 3 4 4 3 4 5 5 6 7 7 7 8 10 12 13 14 14 14 14 14 15 15 15 15 14 12 10 8 8 8 7 8 8 8 8 7 7 6 7 7 7 7 7 8 10 10 9 9 8 7 7 7 7 8 8
12 12 10 9 8 8 7 7 7 7 9 12 13 14 15 15 16 15 13 12 11 10 8 6 5 4 3 3 3 3 4 4 4 4 3 3 3 4 5 6 6 7 9 11 12 12 12 13 13 12 13 15 16 16 16 15 14 11 9 9 8 8 9 9 9 8 8 7 7 7 7 7 8 8 9 10 10 9 8 8 8 7 7 7 7
11 11 11 10 9 9 8 8 8 7 7 9 11 13 14 15 16 16 15 14 13 11 10 8 7 5 4 5 5 5 5 5 5 4 3 3 3 4 4 5 6 6 8 8 9 9 9 10 11 10 10 11 14 15 15 15 15 14 12 10 9 8 9 9 10 10 9 9 8 8 8 8 8 9 10 10 11 10 9 9 8 7 7 7 7
10 10 11 11 11 11 10 9 9 9 10 9 10 11 12 14 15 15 15 15 14 12 11 10 8 7 7 7 7 6 6 6 5 4 4 4 5 4 4 4 5 5 5 5 6 7 7 7 8 10 9 9 11 12 13 13 14 14 13 12 10 9 8 8 9 9 9 9 9 9 8 9 9 9 10 10 11 11 11 10 9 7 6 6 6
10 10 10 11 11 12 12 11 11 11 12 12 11 12 12 12 13 14 14 14 14 14 13 11 11 10 8 8 8 7 7 6 4 4 4 4 4 3 2 2 2 2 3 3 4 5 6 6 7 10 11 11 12 12 11 12 12 12 12 11 10 9 8 7 6 7 8 8 8 8 8 8 8 9 10 10 11 11 12 12 11 9 7 7 7
10 10 10 11 11 12 13 13 13 13 13 13 13 13 12 11 10 12 13 12 13 13 13 13 12 11 10 9 8 7 6 5 5 5 4 3 2 2 2 1 1 1 2 2 2 4 6 7 8 10 11 11 11 11 11 11 12 11 10 10 10 9 8 7 6 5 5 6 7 7 7 7 7 8 8 9 10 10 11 11 11 12 11 8 7
9 9 10 10 11 12 13 13 14 14 14 14 14 13 13 11 9 10 12 12 12 12 13 13 13 13 11 10 9 8 7 7 6 6 4 4 3 2 2 1 1 1 1 1 1 2 4 6 9 11 10 8 9 10 10 11 11 10 10 11 11 10 10 9 8 6 5 6 7 7 7 7 7 7 8 8 8 8 9 9 10 11 11 8 6
7 8 8 8 10 11 12 12 13 14 15 15 15 15 14 12 10 11 12 14 14 14 14 14 13 14 13 11 10 9 8 9 8 6 5 5 4 4 4 3 1 1 1 1 0 1 3 3 6 9 6 6 8 8 9 10 9 9 11 12 12 11 10 10 9 8 7 6 7 8 8 8 8 8 8 8 9 9 8 9 9 9 9 7 5
7 7 7 8 9 10 11 11 11 12 15 17 17 17 16 13 13 13 14 15 16 16 16 15 14 14 12 10 10 9 9 9 7 6 5 5 5 4 5 5 4 3 3 2 2 4 5 4 5 7 6 8 9 8 8 8 9 10 12 13 13 11 10 9 8 8 8 8 8 8 9 9 9 9 10 10 10 9 9 9 9 9 9 8 6
7 8 8 9 9 10 10 11 11 12 16 19 20 20 18 16 15 14 15 16 16 17 17 15 13 12 11 11 10 9 9 8 7 7 6 6 6 6 5 5 5 4 5 4 5 6 7 7 7 7 8 10 8 8 9 8 9 11 13 14 12 11 10 9 9 8 8 9 9 10 10 10 10 11 11 11 11 11 10 10 10 10 10 9 8
8 10 10 10 10 11 11 11 11 12 16 20 22 22 19 18 18 17 16 16 15 15 15 13 11 10 11 11 10 10 11 10 10 9 9 9 8 8 8 8 6 6 6 6 6 7 8 8 7 7 9 9 8 9 10 9 8 10 12 13 11 11 10 9 9 9 10 11 11 11 11 11 11 11 11 11 11 12 12 11 11 11 10 10 9
8 10 11 11 11 11 12 12 11 13 17 20 22 22 20 19 19 19 19 17 16 16 15 14 12 10 10 11 11 10 10 10 10 10 9 9 9 9 9 9 7 6 6 6 6 7 7 6 6 7 6 5 8 9 8 9 9 10 12 11 10 10 10 10 10 11 12 13 13 13 12 12 12 12 12 12 12 12 12 12 12 12 11 11 11
8 9 10 11 11 11 11 12 13 14 17 20 22 22 20 20 19 19 20 19 17 17 16 15 14 11 10 10 10 10 9 9 9 8 7 7 7 8 8 8 8 7 7 6 5 6 6 6 6 7 4 2 6 6 5 7 9 13 14 10 9 10 9 9 10 12 14 15 15 14 14 14 14 14 13 13 13 13 13 13 13 13 13 12 12
8 9 10 11 10 10 11 12 14 15 17 19 20 21 20 20 20 19 18 17 16 15 15 14 13 12 10 10 10 10 10 9 7 6 6 5 4 4 6 7 7 7 6 6 5 5 6 6 5 5 4 1 2 3 5 6 8 13 13 10 8 8 8 8 10 13 15 16 15 14 14 14 14 14 13 13 13 12 12 13 13 12 12 13 13
8 9 10 10 10 10 11 12 13 16 18 19 18 20 20 18 18 18 17 16 16 14 13 12 11 12 11 10 11 11 11 11 9 7 6 6 4 3 4 5 4 5 5 5 4 4 5 5 4 4 3 2 2 4 6 6 7 10 9 7 6 5 6 9 12 14 16 16 14 13 12 12 12 12 12 12 12 12 12 12 12 12 12 11 12
8 9 9 10 11 11 12 13 14 14 17 19 19 19 18 17 17 16 15 16 16 13 11 10 10 11 10 10 10 10 9 9 9 9 6 5 5 5 4 4 3 4 4 3 4 5 6 6 5 4 2 3 5 5 7 6 6 5 3 4 4 4 6 8 11 13 15 14 12 11 11 11 11 11 11 11 12 12 12 12 12 12 12 12 12
9 9 10 10 11 12 12 13 14 14 15 15 15 16 17 18 17 15 15 15 13 10 10 9 9 9 8 8 8 8 8 7 9 10 8 8 8 7 7 6 5 5 4 5 5 6 6 5 4 2 3 4 5 5 6 6 5 1 2 3 4 5 6 8 10 12 12 10 9 9 9 10 11 11 11 11 12 12 12 12 12 12 12 12 12
10 10 10 10 10 12 13 13 13 14 16 16 13 13 16 16 15 15 16 14 12 10 9 9 9 9 8 7 7 9 10 9 9 9 8 8 9 8 8 7 6 5 5 5 5 5 4 3 3 3 3 4 5 6 6 5 2 1 2 3 3 5 7 8 9 9 8 7 7 9 10 11 11 11 11 12 12 12 13 13 13 13 12 11 11
10 11 11 10 10 10 13 15 15 13 15 19 18 17 17 16 16 16 15 12 11 11 11 11 10 10 9 8 8 9 8 8 8 7 6 7 7 6 6 5 4 3 3 3 4 4 3 3 4 4 4 5 5 5 4 1 1 2 2 1 2 4 6 6 6 7 7 8 10 11 12 12 12 12 13 13 13 13 13 13 13 13 13 13 12
11 12 12 11 11 11 12 14 17 18 17 20 21 21 19 18 17 16 13 11 12 12 12 11 10 9 10 9 9 9 8 8 8 8 7 7 7 6 6 5 4 3 3 3 2 2 2 2 4 4 4 5 3 2 1 2 3 4 3 2 1 3 4 5 7 8 8 10 11 11 12 13 13 13 13 14 14 13 13 13 13 14 14 14 14
12 13 13 12 13 14 13 13 15 18 19 19 19 19 20 19 17 15 14 14 14 14 14 12 10 11 10 10 10 9 9 9 8 8 7 7 6 6 6 5 4 3 2 2 1 1 1 2 3 4 5 6 7 7 6 6 6 5 4 3 2 3 4 5 6 6 7 9 9 8 9 10 11 12 13 14 14 14 14 14 14 14 14 14 14
14 15 14 15 16 16 17 17 18 18 18 17 17 18 18 17 16 17 17 16 16 15 15 14 13 13 11 10 11 10 9 9 8 8 7 6 6 6 6 6 5 4 4 4 5 5 5 6 6 7 7 7 8 9 8 6 6 6 6 5 3 2 3 4 5 5 4 5 5 8 9 9 10 12 13 14 15 15 15 15 15 15 15 15 14
16 16 16 17 18 17 19 20 21 21 19 17 17 18 17 16 17 17 16 16 16 16 16 15 14 14 13 11 10 9 9 9 8 7 7 8 8 9 9 9 8 8 7 8 8 7 7 7 6 6 7 7 9 11 8 5 6 6 7 6 5 4 4 5 5 5 5 5 6 9 11 12 13 14 15 15 16 16 16 17 17 16 16 16 15
17 18 18 19 19 19 19 20 19 19 18 18 19 18 18 18 16 15 14 14 16 15 15 15 14 14 14 12 11 11 12 12 12 12 12 12 11 11 11 10 10 9 7 7 8 7 7 7 6 6 7 8 10 11 9 6 5 6 6 5 5 4 3 5 7 6 7 8 8 10 12 13 14 16 16 17 17 17 18 18 18 17 17 16 16
20 21 21 21 21 20 19 18 18 18 18 19 20 19 19 20 17 16 16 15 16 16 17 17 16 16 16 16 16 16 16 16 15 14 13 13 12 11 11 10 10 9 8 7 7 7 7 7 7 8 7 8 9 11 10 7 5 5 5 4 4 4 2 4 7 4 6 9 10 13 13 13 15 17 18 18 19 19 19 19 18 18 17 17 16
21 22 22 22 21 19 18 17 18 19 19 19 20 19 20 21 21 21 21 20 20 20 21 22 20 20 20 20 19 18 17 16 15 14 13 12 11 11 10 9 9 9 8 6 6 7 7 7 8 8 8 9 10 9 9 8 6 4 2 2 1 1 2 7 8 3 4 8 12 15 15 16 18 19 20 20 19 20 20 20 19 18 17 17 18
22 22 22 22 21 19 18 18 18 20 19 19 19 20 21 22 23 25 26 26 26 24 24 24 24 23 22 21 20 19 17 16 15 14 12 11 11 10 9 9 8 8 7 6 7 7 7 7 8 8 9 10 10 9 9 9 7 5 4 3 3 4 6 10 10 8 9 11 13 15 16 18 19 20 21 21 20 21 20 20 19 18 17 18 20
24 24 24 23 21 20 20 19 20 20 19 19 19 20 21 22 23 25 27 28 29 28 26 25 24 23 22 21 20 19 17 15 14 13 11 10 10 9 8 7 7 7 7 7 7 7 7 8 9 9 10 10 9 9 10 10 9 9 8 8 7 7 9 10 11 13 14 15 15 15 17 19 19 20 21 20 21 21 20 20 19 18 17 19 21
25 25 25 24 23 22 22 22 22 21 20 20 21 21 22 24 26 27 28 28 28 29 27 26 24 22 21 20 19 18 16 14 12 11 11 9 8 8 7 7 7 7 7 6 7 8 8 9 9 9 9 9 10 11 11 10 10 11 10 9 9 9 10 10 11 12 15 18 19 17 18 19 18 19 20 20 20 20 20 19 18 17 18 20 21
27 26 26 25 24 24 24 24 24 22 22 22 23 23 24 26 29 29 30 28 27 27 27 25 24 22 20 19 18 17 15 13 12 10 10 9 7 7 7 6 7 7 6 7 8 8 8 8 8 9 10 10 12 12 12 12 12 12 10 10 10 9 10 10 10 12 13 17 20 20 22 23 21 18 18 20 21 20 20 19 17 17 18 20 18
28 27 27 26 26 25 26 26 26 24 23 25 26 26 26 28 29 29 30 29 28 27 26 25 23 21 19 18 17 15 14 12 11 10 9 8 7 7 6 6 6 6 7 7 8 7 8 8 9 10 11 11 12 12 13 13 13 13 13 13 12 12 12 12 12 14 14 16 18 22 23 25 26 23 21 21 21 21 21 19 17 17 18 17 14
29 30 29 28 27 27 27 27 26 25 24 26 27 28 28 28 28 28 27 27 26 25 25 24 22 20 18 17 16 14 13 12 10 9 8 7 6 6 5 5 6 6 7 7 7 7 8 8 10 10 11 11 12 12 13 13 14 14 15 15 15 15 15 15 15 16 16 17 19 23 24 25 27 26 25 24 22 21 21 19 18 19 19 16 14
Wind_Direction
140 159 174 160 148 138 130 127 119 110 102 100 96 95 88 81 76 69 66 56 50 56 64 79 90 92 92 90 84 80 79 77 74 70 65 56 52 52 51 51 54 57 59 59 55 51 49 50 54 59 64 67 68 69 70 72 75 77 79 79 77 77 77 76 75 74 73 73 69 65 58 52 54 52 52 52 51 49 49 50 51 52 51 50 55
131 159 173 164 155 143 137 132 125 118 107 101 93 92 87 83 75 69 66 57 52 55 62 78 91 93 92 90 84 79 77 74 73 72 69 64 61 59 56 52 50 50 50 48 43 43 44 46 51 55 60 64 66 68 70 71 74 79 81 80 80 82 82 80 77 76 76 76 67 62 58 52 52 52 49 45 43 43 43 48 52 55 53 47 50
150 161 171 166 157 149 144 135 132 127 118 109 98 94 86 82 78 74 68 60 56 58 64 80 90 92 91 88 84 80 76 72 69 69 69 68 67 64 62 56 47 44 40 35 30 30 33 37 43 48 51 55 59 64 70 73 75 76 80 81 81 83 84 80 74 74 79 81 69 58 56 52 52 50 47 43 41 37 36 37 43 52 55 51 51
167 160 172 168 156 157 152 142 139 132 125 119 105 97 85 81 79 72 64 61 58 58 68 84 93 94 92 89 86 81 74 68 63 65 70 69 70 68 64 59 48 39 34 29 24 25 26 28 33 38 39 41 46 50 59 70 77 78 80 81 83 86 85 79 73 70 72 72 64 57 54 52 56 53 44 37 33 28 25 24 25 34 41 47 50
155 159 176 170 158 158 153 148 142 136 128 121 111 96 84 79 75 67 61 60 57 55 67 82 92 98 97 94 89 80 70 59 53 59 71 72 71 69 61 60 49 35 32 30 26 25 22 21 24 27 29 29 31 34 42 55 71 83 87 86 88 92 89 85 81 70 64 62 56 55 54 49 54 52 41 29 22 17 14 12 10 14 15 13 25
140 147 173 168 159 156 154 156 148 142 130 122 113 96 85 73 67 63 62 63 56 54 66 79 88 96 98 97 89 76 64 51 48 56 72 77 75 74 68 63 49 34 33 31 27 25 21 18 18 20 23 24 26 30 37 45 58 81 94 100 98 98 96 96 95 80 71 62 51 49 50 48 48 46 37 27 20 14 10 6 1 360 357 346 344
139 135 164 164 157 156 158 161 154 147 135 129 119 104 90 71 60 54 54 62 60 59 71 83 88 96 100 96 82 68 57 50 50 58 74 80 76 78 76 66 49 30 28 27 26 24 22 21 20 22 23 25 28 33 42 49 60 79 95 106 106 105 106 108 107 97 86 70 58 52 48 49 47 40 30 20 18 11 10 7 1 1 354 344 335
150 134 160 162 158 159 153 153 156 152 142 138 128 113 100 80 65 53 47 54 63 68 75 82 91 103 104 93 78 65 54 52 55 61 75 80 73 70 73 66 44 25 25 23 23 23 23 24 25 27 29 32 32 34 41 51 66 83 96 105 112 122 123 121 119 116 109 77 71 67 56 49 46 41 30 15 13 16 17 11 8 13 11 3 346
158 131 149 158 159 163 156 148 156 159 149 141 135 121 114 95 73 66 58 57 64 74 79 78 87 103 102 90 75 62 51 51 57 64 75 79 71 61 56 50 32 23 23 20 20 21 23 24 27 30 33 37 37 36 41 53 66 78 90 105 122 134 137 140 135 130 176 293 96 90 70 50 41 42 35 13 14 22 17 12 18 28 21 11 0
165 129 135 154 157 163 166 164 162 168 162 149 145 132 123 99 76 76 75 77 75 74 81 76 74 86 91 81 67 59 53 49 54 61 70 76 69 54 44 36 29 23 20 17 18 20 22 24 26 28 32 38 39 37 44 56 67 75 85 105 127 139 143 151 143 138 231 262 205 129 82 62 49 43 35 7 14 18 9 13 31 38 24 14 8
166 137 139 157 160 162 175 183 179 180 174 161 162 154 135 112 87 84 85 89 83 73 73 72 69 73 78 70 65 65 60 55 56 56 64 76 69 51 42 36 32 24 18 15 17 20 21 23 25 26 29 36 40 39 47 56 66 74 79 94 111 125 135 147 149 162 215 244 211 167 124 93 80 53 23 335 354 354 357 11 43 53 38 20 8
164 169 164 170 177 177 184 193 191 195 187 170 174 169 146 126 101 92 93 92 82 73 68 69 63 63 69 68 68 65 60 61 61 57 57 68 65 54 45 39 32 22 18 18 21 21 22 23 24 25 26 31 37 39 46 56 65 70 73 78 85 97 111 133 155 175 197 212 217 193 152 138 143 88 8 298 320 332 344 356 19 58 61 27 1
170 183 185 192 199 194 195 199 197 200 197 182 185 183 168 150 123 114 112 106 93 83 76 72 63 59 70 75 73 64 61 62 61 57 55 52 44 42 43 38 31 24 23 23 22 21 21 23 25 26 27 29 33 34 37 47 59 65 68 68 70 77 89 114 144 166 190 200 209 208 169 204 210 234 293 286 301 313 329 341 342 345 357 337 337
181 188 191 198 202 199 197 198 199 200 202 192 188 192 191 185 165 151 145 140 120 100 89 82 77 71 75 82 79 70 69 65 55 46 45 44 32 21 24 27 26 24 25 21 19 20 20 21 25 27 30 31 34 35 31 33 40 47 52 54 53 50 54 60 116 157 182 191 198 210 213 269 230 314 306 300 299 295 314 330 335 328 316 318 324
197 203 201 199 195 194 192 194 197 198 205 201 191 193 200 200 191 178 171 173 152 115 103 95 89 84 77 83 86 81 70 59 57 43 29 28 29 19 11 12 17 17 15 16 18 20 17 17 21 25 29 32 36 39 35 29 28 32 33 36 36 30 26 6 348 348 338 253 225 236 282 359 68 21 349 339 314 292 317 325 323 325 320 321 323
211 218 218 214 201 192 190 190 194 198 202 203 201 197 201 207 200 195 193 187 170 155 148 117 83 86 70 67 78 82 63 42 50 45 28 19 17 14 6 2 6 7 4 9 16 16 12 11 13 19 26 31 35 40 40 32 25 24 24 22 20 15 9 3 357 355 350 337 336 328 311 335 68 28 352 336 322 320 335 326 326 328 326 327 328
214 221 227 234 227 201 194 190 192 197 199 199 203 202 205 210 206 205 205 200 192 191 186 176 129 96 54 44 42 32 31 22 18 22 26 14 7 6 3 0 359 0 1 5 9 7 5 5 7 12 20 27 32 35 39 35 27 20 16 10 6 3 359 359 1 3 3 354 351 348 332 313 307 328 328 327 333 347 348 334 335 335 331 332 334
205 215 221 227 233 217 199 196 197 200 203 202 202 205 207 209 210 211 209 207 209 208 198 187 168 143 91 16 351 335 329 328 335 346 357 351 357 2 1 3 359 359 359 359 1 1 2 3 5 9 16 23 27 28 30 31 26 17 9 3 360 356 357 358 357 359 3 359 354 354 350 329 314 324 331 336 344 349 347 343 339 337 335 335 336
199 209 213 216 218 217 205 204 209 210 212 210 207 208 208 210 211 212 211 212 214 215 213 209 203 193 195 259 275 273 287 294 303 319 334 337 342 346 349 356 358 358 355 353 356 359 1 4 8 12 18 22 25 26 25 23 19 11 3 358 357 354 354 356 354 353 353 354 353 354 354 344 334 331 331 336 345 344 339 340 339 339 338 337 338
197 204 208 213 212 210 209 208 214 218 220 219 218 215 212 213 213 213 214 216 217 219 222 216 225 235 236 254 267 264 272 283 288 298 319 332 338 344 347 348 351 355 354 352 354 357 1 7 13 19 24 26 27 29 27 25 18 9 359 352 352 350 348 349 351 351 350 350 350 350 348 345 341 334 332 334 343 344 333 330 333 335 336 337 340
202 203 204 209 213 212 211 209 213 218 221 220 224 224 221 218 216 216 216 221 221 222 226 222 231 243 245 249 249 242 246 262 272 279 298 314 329 349 352 346 345 349 353 352 353 355 4 11 19 31 36 32 31 31 31 30 25 17 6 353 348 345 342 343 346 348 348 348 348 348 345 342 337 333 333 334 339 342 334 325 323 326 328 333 339
211 212 211 208 209 214 214 213 214 213 212 215 218 220 224 222 219 219 219 224 225 225 230 231 235 241 243 240 228 221 227 238 246 255 268 283 298 321 336 337 335 342 352 354 350 353 9 19 29 41 41 34 29 27 28 30 30 26 18 6 353 345 342 341 343 346 347 347 346 347 346 343 339 335 333 333 334 335 333 327 322 324 323 326 333
213 216 222 219 214 214 215 213 213 211 208 209 210 209 215 217 217 220 221 225 227 228 230 232 234 238 244 239 228 220 218 223 228 233 250 271 288 301 317 327 328 342 358 357 345 345 8 29 38 32 26 26 23 23 25 26 27 26 23 18 7 355 348 342 339 341 344 346 346 347 347 345 343 339 335 334 333 330 330 330 328 327 326 326 330
222 218 221 224 223 221 219 215 213 211 206 206 207 205 207 212 215 217 218 221 224 227 228 229 232 233 235 232 232 225 213 216 222 231 249 267 285 288 294 319 329 353 3 351 339 337 355 18 23 15 20 27 21 22 26 23 22 19 18 17 13 5 354 346 337 333 335 339 341 342 343 343 342 339 335 333 332 331 330 332 331 329 338 347 349
234 227 222 221 224 224 224 218 215 214 208 205 205 205 207 211 211 212 213 214 218 223 225 225 227 229 227 226 230 228 221 221 225 238 250 249 253 260 267 323 15 24 352 353 350 338 345 356 356 1 20 27 16 16 19 16 14 11 12 12 11 7 357 351 341 327 319 321 325 328 330 330 331 331 330 329 329 330 330 332 330 329 338 352 4
234 233 227 223 223 222 223 220 216 214 209 205 203 203 207 207 201 206 207 207 210 214 217 219 221 222 219 219 222 220 222 221 219 232 244 229 218 226 246 276 78 40 7 44 25 345 337 341 346 352 9 12 359 2 5 5 7 10 12 10 8 5 359 355 349 337 320 307 305 306 309 312 313 313 314 315 318 320 322 325 324 327 335 344 356
230 234 231 228 226 223 222 220 214 210 206 204 199 195 199 199 195 202 203 203 208 210 212 213 216 221 219 218 221 222 224 224 221 226 238 232 218 215 223 227 235 269 260 244 246 318 308 315 337 340 344 338 333 339 347 355 4 11 10 5 4 2 360 357 355 350 340 327 310 302 299 298 299 299 299 300 302 306 308 310 312 315 321 326 327
232 235 234 228 228 230 226 224 216 202 197 196 194 192 193 194 197 204 205 204 208 212 215 213 214 224 225 221 223 226 229 230 228 226 232 236 240 242 237 234 229 231 246 265 272 274 278 281 307 313 304 303 314 325 341 358 3 6 2 359 0 2 3 359 358 357 351 348 337 324 314 308 303 298 295 296 297 298 299 297 300 300 301 307 299
234 235 236 229 227 232 231 230 222 200 190 188 191 194 191 191 197 203 208 210 211 217 220 218 219 225 226 223 223 224 225 226 224 221 231 246 259 266 257 249 244 246 258 271 271 272 276 281 290 292 291 299 314 332 346 1 1 356 351 350 356 1 5 5 3 3 357 356 355 348 339 332 323 314 308 303 299 294 293 291 291 294 294 299 295
231 233 234 228 226 229 229 227 219 201 191 188 190 193 191 192 196 199 207 214 215 221 225 221 220 223 223 222 222 224 225 225 227 231 243 250 254 255 247 245 254 265 270 272 273 273 275 278 279 282 294 308 319 331 347 358 352 346 342 346 355 358 0 4 5 6 2 359 357 352 348 344 336 330 325 317 310 300 294 290 287 288 289 290 291
234 236 236 230 225 223 223 219 208 198 191 188 189 191 193 195 196 198 205 210 212 220 225 223 221 222 222 221 220 223 226 229 234 238 244 251 256 257 250 245 248 254 254 256 264 267 268 267 269 280 295 321 320 323 343 346 333 330 335 345 354 353 353 360 1 2 2 359 353 347 343 341 335 332 330 325 319 312 305 297 290 286 284 284 284
242 243 240 234 226 219 217 212 202 195 189 188 190 193 198 201 200 203 209 212 214 222 227 228 227 224 221 221 221 222 228 233 236 238 245 258 259 252 246 238 231 230 231 235 247 251 249 250 260 277 281 300 311 309 319 330 323 318 329 351 359 348 345 354 357 355 355 350 345 341 338 334 330 328 326 322 319 316 312 306 300 294 288 286 284
245 243 239 234 228 217 210 206 198 193 189 190 193 196 200 205 205 207 211 214 218 225 231 233 230 225 223 226 228 230 234 236 235 239 241 244 239 231 231 223 212 214 221 228 238 238 242 251 251 260 269 270 294 296 303 326 325 319 335 358 355 340 338 349 353 347 342 338 337 337 335 332 329 329 327 325 322 320 319 314 311 307 299 293 287
251 243 237 229 225 214 202 201 196 191 187 188 194 198 201 207 211 212 211 212 215 220 225 227 226 228 233 235 236 237 237 234 230 226 216 213 223 227 228 226 223 233 235 233 240 245 259 275 267 259 281 305 291 280 276 291 320 332 347 349 340 345 344 346 345 338 332 330 333 334 332 332 332 336 336 334 332 331 330 326 323 320 316 309 300
257 247 235 221 218 208 197 195 190 186 185 189 198 200 198 201 209 215 213 213 215 217 216 218 223 229 234 234 233 230 230 227 217 213 208 205 222 225 225 237 240 238 238 248 269 279 278 275 272 274 289 283 276 272 270 291 331 347 333 310 335 1 350 342 334 327 326 326 330 332 334 338 342 346 345 344 344 343 340 335 332 330 326 323 318
256 247 235 220 210 198 191 190 182 176 175 185 200 197 193 200 207 210 213 217 216 211 211 212 212 212 211 213 208 195 193 190 188 202 214 212 217 228 239 246 240 237 250 270 279 282 280 271 262 258 257 275 286 300 318 337 354 352 265 312 351 353 339 332 324 321 326 330 336 343 350 354 357 359 356 356 358 358 355 350 345 341 336 331 326
248 242 232 219 208 192 183 182 177 176 175 177 184 183 187 198 202 204 212 217 209 202 201 194 194 194 191 191 180 174 183 186 186 199 210 211 219 229 234 236 238 245 256 264 262 257 263 262 262 266 274 297 314 327 340 349 344 260 279 321 343 334 322 318 321 330 342 356 8 16 19 19 20 19 17 16 17 18 16 13 8 2 358 353 346
240 235 226 213 204 188 181 178 171 173 175 174 173 173 177 185 193 205 216 213 198 192 186 186 196 193 181 176 170 168 173 177 184 193 193 196 205 209 212 212 215 227 237 245 245 240 247 261 281 299 306 310 317 316 317 304 235 230 229 282 328 324 321 327 349 9 18 30 38 39 38 35 32 30 30 29 27 27 26 25 22 17 15 13 11
232 224 216 207 194 180 179 177 171 172 174 179 184 184 185 193 201 207 204 189 180 178 177 188 197 180 167 166 166 164 164 168 173 177 176 177 181 182 188 190 192 206 222 231 233 242 266 295 310 325 330 338 7 22 70 151 181 189 175 156 20 359 359 8 26 40 47 50 50 47 44 39 34 30 29 28 25 24 23 23 22 20 18 16 14
223 216 207 197 188 179 172 168 170 175 180 187 191 187 188 195 197 192 181 174 176 177 177 185 182 168 166 169 169 166 168 174 178 179 182 186 189 190 191 191 194 202 205 209 171 96 56 35 23 34 38 47 68 79 94 129 168 169 151 140 92 44 29 31 38 52 64 61 50 36 32 30 26 24 22 21 18 14 14 14 14 13 11 9 9
215 210 200 189 189 185 175 171 169 174 185 189 183 181 188 189 182 179 179 179 181 182 183 186 180 173 174 174 173 175 181 189 195 197 197 192 184 175 170 161 151 142 125 108 96 89 82 76 71 71 70 66 74 79 90 132 167 160 147 145 124 82 49 40 29 34 50 48 27 7 3 2 5 9 11 11 8 7 7 7 7 6 3 0 360
211 205 196 188 192 190 185 185 183 184 191 189 181 182 185 183 182 185 188 186 184 188 193 194 187 177 172 174 178 181 183 183 178 170 156 145 140 136 132 128 122 114 111 106 99 96 88 83 77 76 72 61 70 77 86 127 160 158 156 150 122 90 61 38 16 7 5 356 349 348 348 350 354 357 359 359 359 360 1 3 3 2 0 358 355
207 202 195 191 195 196 195 196 194 191 188 183 183 185 184 185 192 193 191 187 180 182 188 185 177 169 165 167 164 158 153 149 141 136 133 127 125 126 123 121 117 110 106 101 98 96 87 81 68 60 60 59 68 77 83 107 141 151 159 155 133 117 90 36 17 6 356 349 342 341 342 348 353 354 353 352 352 355 356 358 359 359 358 357 355
205 201 198 197 201 203 203 201 195 189 186 186 189 193 191 188 188 182 176 174 168 166 167 162 160 159 155 151 146 141 140 137 132 131 132 128 126 125 120 118 112 103 95 90 90 85 76 70 58 48 45 47 57 68 81 95 116 146 169 177 176 183 196 345 355 356 350 343 337 341 344 346 350 351 350 349 351 352 353 354 355 356 356 354 353
206 204 201 201 204 203 202 198 191 190 193 194 193 193 188 181 176 170 164 163 160 158 157 152 151 152 148 144 141 138 138 136 133 133 131 128 125 119 114 109 103 98 93 84 77 71 64 57 49 40 31 34 41 49 64 78 86 108 141 163 197 239 300 335 341 321 315 329 335 341 344 345 348 348 347 348 350 351 352 353 352 354 354 351 350
204 203 201 201 201 199 196 193 190 191 193 193 191 188 182 176 171 165 161 160 156 153 153 150 149 150 148 145 141 138 139 137 133 131 127 124 119 113 107 101 97 95 85 72 67 63 56 50 44 35 31 35 35 31 39 48 51 55 54 45 20 352 345 345 344 327 316 326 338 340 340 343 347 347 346 346 348 350 352 351 350 352 352 350 350
203 200 200 199 197 194 191 189 187 185 186 185 184 182 178 174 169 162 160 159 154 151 152 151 151 152 149 146 142 139 139 137 133 130 126 122 116 110 104 96 90 82 74 66 62 58 50 48 46 36 38 41 32 28 39 41 32 31 34 27 16 2 353 349 344 337 327 325 331 336 335 338 343 344 344 345 347 348 350 349 349 351 351 351 351
202 200 199 197 194 191 189 187 184 183 185 184 183 182 178 172 166 162 160 160 157 153 153 154 154 154 150 147 144 142 139 137 134 131 126 120 113 107 98 88 80 75 72 60 52 52 46 45 44 38 38 36 29 31 38 37 32 33 33 25 17 7 358 353 346 340 331 324 328 334 333 334 339 343 341 343 346 348 349 348 350 352 351 351 351
202 201 199 195 193 191 188 187 186 187 189 187 184 180 176 170 165 163 162 161 160 156 155 157 156 155 153 149 147 145 142 140 135 131 125 118 110 100 91 81 73 69 60 48 46 48 44 41 39 35 32 29 30 32 31 30 30 30 27 20 16 7 358 352 344 339 334 328 328 333 336 335 338 345 344 343 347 349 350 351 354 354 350 350 347
201 201 198 195 193 191 188 187 188 190 192 189 183 176 172 170 166 167 166 165 164 161 159 160 158 158 157 152 150 147 144 142 137 131 125 117 108 95 87 76 66 60 50 46 46 44 40 36 32 31 29 28 29 27 25 25 23 19 14 8 5 360 355 350 344 340 339 335 329 331 337 336 336 343 347 346 347 349 352 355 355 352 348 345 336
200 199 198 196 194 191 188 188 189 192 193 189 181 174 170 170 170 171 172 170 169 168 165 164 161 162 162 155 152 150 146 143 139 134 128 117 107 94 85 70 58 53 46 44 41 35 32 29 28 28 25 23 24 22 21 19 14 10 5 359 356 355 353 350 347 344 342 338 332 332 336 334 333 338 343 344 346 349 353 354 351 348 345 340 329